STARLINK-34320, 64217

Orbit data source: Space-Track

STARLINK-34320, 64217 is a payload satellite owned by SpaceX/Seattle (US) in LEO that was launched on Sat, 31 May 2025 UTC via an FALCON 9 launch vehicle from the Air Force Western Test Range (AFWTR). Payload-class satellites include a variety of spacecraft equipped with specific instruments for various scientific and technological missions. These include communications satellites like Starlink; space stations such as the ISS; scientific satellites like the Hubble; Earth observation satellites from companies like Planet Labs, Umbra, and HawkEye 360; GPS; miniature CubeSats for education and research; and military/defense satellites.

Loading next visibility...
Identifier
64217, 2025-117Q
Orbit
LEO
Country
Flag of USUS
Related business
Manufacturer
SpaceX/Seattle
Mission
Operational Commercial Communications
Bus & Motor
STARLINK V2MO, Unknown motor
Mass
575 kg wet, ~530 kg dry
Launch date (UTC)
2025-05-31 (1 year ago)
Launch vehicle
FALCON 9
Launch site
Air Force Western Test Range (AFWTR)
Object type
Payload
Rocket body
Debris
Shape & HBR
Box + 2 Pan, 17.7 m
Radar Cross Section
36.964 m², Large (>1 m²)

Expand to show TLE details & history
Last TLE update: 1 day ago

TLE from 1 day ago
0 STARLINK-34320
1 64217U 25117Q   26170.58956100  .00035849  00000-0  10664-2 0  9994
2 64217  53.1611 285.8250 0001107  96.1718 263.9411 15.34420231 60131
Epoch: 2026-06-19T14:08Z
TLE epoch observation values (Epoch: 2026-06-19T14:08:58.070Z)
Latitude
Longitude
165.76668°
Altitude
463.625 km
Speed
7.636 km/s
True Right ascension
19h 03m 18s
True Declination
0° 00' 00"
Sunlit
Object was in full shadow at epoch
Visualization orbit readout
Latitude
Unknown
Longitude
Unknown
Altitude
Unknown
Speed
Unknown
Apparent Right ascension
Unknown
Apparent Declination
Unknown
Sunlit
N/A
Visualization observer readout
Local Sidereal Time
10:19:45
Azimuth
Unknown
Elevation
Unknown
Doppler factor
Unknown
Orbital elements
Apogee altitude
463.657 km
Perigee altitude
462.143 km
Semi-major axis
6,841.037 km
Eccentricity
0.00011
Inclination
53.1611°
RAAN
285.825°
Arg. of periapsis
96.1718°
True anomaly
263.92849°
Mean anomaly
263.9411°
Eccentric anomaly
263.93479°
Mean motion
3.83584 °/min
Orbital period
93.85 mins
BSTAR
0.0010664
Loading maneuver chart data...
Computing Atmospheric mass density...
Loading historical data...
Loading historical data...
Loading historical data...
Loading historical data...
Loading historical data...
Loading historical data...
Loading historical data...

Documentation

Showing up to 5 results
|